星链-35811(STARLINK-35811)

导读 | 豆包AI

STARLINK-35811是美国SpaceX公司星链(Starlink)星座的成员,于2025年11月22日发射。星链计划旨在构建全球低轨卫星互联网,为偏远地区等提供高速宽带服务。该卫星运行于近地轨道,属于第二代星链卫星系列,配备先进通信技术,助力拓展全球网络覆盖,提升星座整体通信能力。

基本信息
目录编号:
66596
目录名称:
STARLINK-35811
国际标识:
2025-270J
轨道中心:
EARTH
卫星名称:
星链-35811
卫星全名:
星链-35811(STARLINK-35811)
卫星状态:
在轨 (已飞行112 天)
发射日期:
2025-11-22 UTC
国别 :
美国 (US)
星等 :
--
轨道信息
数据来源 国际轨道数据
星历时间: 2026-03-14T06:48:18+0800
12小时前
查看轨道信息
半长轴: 6861.154km
偏心率: 0.0001324
轨道倾角: 43.004°
近地点辐角 263.529°
升交点赤经 32.453°
平近点角 96.541°
近地点: 482.108km
远地点: 483.926km
周期: 94.266分钟
每日圈数: 15.275909
详细信息
固有亮度:
5
最大亮度:
2.5
卫星平台:
Starlink V1.0
覆盖范围:
全球
运营商:
太空探索技术公司
运营商所在国:
美国
制造商(研发单位):
太空探索技术公司
制造商所在国:
美国
使用方式:
暂无
卫星简介
Starlink 计划是 SpaceX 推出的全球卫星互联网项目,通过发射低轨道卫星,为全球尤其是偏远地区提供高速、低延迟的互联网服务。自 2019 年起,Starlink 已部署数千颗卫星,旨在缩小全球数字鸿沟,推动互联网普及。该项目还为军事、航空等行业提供通信支持,带来广泛经济效益。
2D轨道图
3D轨道图
轨道高度分析图
轨道倾角分析图
轨道综合分析图
查看轨道综合分析图